Location: Caltech
(34.1382°N, 118.1253°W)
Time: 15:04:44
(UTC-07:00)

SO-67 - Visible Passes

Search period start: 25 October 2014 00:00
Search period end: 03 November 2014 23:00
Orbit: 458 x 462 km, 97.2° (Epoch: 25 October)

Date Brightness Start Highest point End Pass type
(mag) Time Alt. Az. Time Alt. Az. Time Alt. Az.
25 Oct ? 19:35:24 10° S 19:38:42 46° W 19:42:01 10° NNW visible
26 Oct ? 19:03:32 10° SSE 19:06:52 53° ENE 19:10:14 10° N visible
27 Oct ? 18:32:42 10° ESE 18:35:09 19° ENE 18:37:38 10° NNE visible
27 Oct ? 20:05:38 10° SW 20:08:00 17° W 20:10:22 10° NW visible
28 Oct ? 19:32:40 10° S 19:36:00 50° W 19:39:21 10° NNW visible
29 Oct ? 19:00:47 10° SSE 19:04:06 48° ENE 19:07:25 10° N visible
30 Oct ? 18:29:59 10° ESE 18:32:18 17° ENE 18:34:38 10° NNE visible
30 Oct ? 20:02:36 10° SW 20:05:06 19° W 20:07:38 10° NW visible
31 Oct ? 19:29:39 10° S 19:33:01 56° W 19:36:25 10° NNW visible
01 Nov ? 18:57:47 10° SSE 19:01:03 43° ENE 19:04:20 10° N visible
02 Nov ? 17:27:02 10° ESE 17:29:11 16° ENE 17:31:20 10° NNE visible
02 Nov ? 18:59:17 10° SSW 19:01:56 21° W 19:04:36 10° NW visible
03 Nov ? 18:26:23 10° S 18:29:47 63° W 18:33:12 10° NNW visible
